ECHOSTAR 18

Last updated on Wed Nov 20 2024 00:02:42 GMT+0000 (Coordinated Universal Time)

1 41592U 16039B 24324.57911243 -.00000280 00000+0 00000+0 0 9996 2 41592 0.0149 305.0360 0001778 297.2932 323.9147 1.00271650 30869
UTC large
Height (km)
Speed (km/s)
/
Latitude / Longitude
Inclination (degrees)
Orbital Period (minutes)
Azimuth
Elevation
Range (km)
Doppler Factor

Next 0 passes for location: London (51.5072 / 0.1276)

Sorry there are no passes over London.